Andover, NJ

7:55 PM EDT on April 27, 2017 (GMT -0400)
Andover

Weather History for K12N - October, 2011

Change the Weather History Date:

Friday, October 7, 2011

  Actual Average (KFWN) Record (KFWN)
Temperature  
Mean Temperature 54 °F -  
Max Temperature 69 °F 67 °F 87 °F (1959)
Min Temperature 39 °F 38 °F 22 °F (1992)
Degree Days  
Heating Degree Days 11    
Growing Degree Days 4 (Base 50)    
Moisture  
Dew Point 40 °F    
Average Humidity 72    
Maximum Humidity 100    
Minimum Humidity 26    
Precipitation  
Precipitation 0.00 in - - ()
Sea Level Pressure  
Sea Level Pressure 30.45 in    
Wind  
Wind Speed 1 mph (SW)    
Max Wind Speed 5 mph    
Max Gust Speed -    
Averages and records for this station are not official NWS values.
T = Trace of Precipitation, MM = Missing Value Source: NWS Daily Summary

Daily Weather History Graph

Daily Weather History Graph

Search for Another Location

Airport or City:

Trip Planner

Search our weather history database for the weather conditions in past years. The results will help you decide how hot, cold, wet, or windy it might be!

Date:

Astronomy

Oct. 07, 2011 Rise Set
Actual Time 7:01 AM EDT 6:31 PM EDT
Civil Twilight 6:34 AM EDT 6:58 PM EDT
Nautical Twilight 6:02 AM EDT 7:30 PM EDT
Astronomical Twilight 5:30 AM EDT 8:02 PM EDT
Moon 4:14 PM EDT (10/7) 2:45 AM EDT (10/7)
Length of Visible Light 12h 24m
Length of Day
11h 29m
Waxing Gibbous, 83% of the Moon is Illuminated
Oct 7
Waxing Gibbous
Oct 11
Full
Oct 19
Last Quarter
Oct 26
New
Nov 2
First Quarter

Hourly Weather History & Observations

Time (EDT) Temp. Dew Point Humidity Pressure Visibility Wind Dir Wind Speed Gust Speed Precip Events Conditions
12:54 AM 43.0 °F 41.0 °F 93% 30.38 in - Calm Calm - N/A   Unknown
1:54 AM 42.1 °F 39.9 °F 92% 30.37 in - Calm Calm - N/A   Unknown
2:54 AM 41.0 °F 39.0 °F 93% 30.38 in - Calm Calm - N/A   Unknown
3:54 AM 39.9 °F 39.0 °F 97% 30.38 in - Calm Calm - N/A   Unknown
4:54 AM 39.9 °F 39.0 °F 97% 30.39 in - Calm Calm - N/A   Unknown
5:54 AM 39.0 °F 37.9 °F 96% 30.42 in - Calm Calm - N/A   Unknown
6:54 AM 39.0 °F 39.0 °F 100% 30.45 in - Calm Calm - N/A   Unknown
7:54 AM 41.0 °F 39.9 °F 96% 30.48 in - Calm Calm - N/A   Unknown
8:54 AM 45.0 °F 43.0 °F 93% 30.49 in - Calm Calm - N/A   Unknown
9:54 AM 51.1 °F 39.9 °F 66% 30.49 in - NE 4.6 mph - N/A   Unknown
10:54 AM 55.9 °F 39.9 °F 55% 30.49 in - Calm Calm - N/A   Unknown
11:54 AM 61.0 °F 35.1 °F 38% 30.49 in - Calm Calm - N/A   Unknown
12:54 PM 63.0 °F 33.1 °F 33% 30.48 in - North 3.5 mph - N/A   Unknown
1:54 PM 66.0 °F 34.0 °F 30% 30.46 in - Calm Calm - N/A   Unknown
2:54 PM 66.9 °F 33.1 °F 28% 30.45 in - Variable 3.5 mph - N/A   Unknown
3:54 PM 68.0 °F 34.0 °F 28% 30.45 in - Calm Calm - N/A   Unknown
4:54 PM 69.1 °F 33.1 °F 26% 30.45 in - Calm Calm - N/A   Unknown
5:54 PM 60.1 °F 39.9 °F 47% 30.45 in - Calm Calm - N/A   Unknown
6:54 PM 55.0 °F 46.0 °F 72% 30.46 in - Calm Calm - N/A   Unknown
7:54 PM 52.0 °F 48.0 °F 86% 30.48 in - Calm Calm - N/A   Unknown
8:54 PM 50.0 °F 46.9 °F 89% 30.48 in - Calm Calm - N/A   Unknown
9:54 PM 48.9 °F 46.0 °F 90% 30.49 in - Calm Calm - N/A   Unknown
10:54 PM 46.9 °F 45.0 °F 93% 30.49 in - SSW 3.5 mph - N/A   Unknown
11:54 PM 46.9 °F 45.0 °F 93% 30.48 in - SSW 3.5 mph - N/A   Unknown